UAL791 KDEN-KMEM

Flight info

Callsign UAL791
Flight time 1h 46m
Altitude 39000
Route EPKEE7 DUUZE ICT RZC BRBBQ3
Aircraft A319/M-SDE3FGHIRWY/LB1

Departure

Time 2026-05-08 02:59
Airport Denver International Airport (KDEN)

Arrival

Time 2026-05-08 04:46
Airport Memphis International Airport (KMEM)
Time Latitude Longitude Altitude Speed Heading
2026-05-08 02:11 39.85810 -104.67950 5387 ft 0 kts
2026-05-08 02:43 39.85802 -104.67951 5386 ft 3 kts
2026-05-08 02:44 39.85782 -104.67952 5385 ft 3 kts
2026-05-08 02:44 39.85761 -104.67953 5386 ft 3 kts
2026-05-08 02:44 39.85741 -104.67954 5384 ft 3 kts
2026-05-08 02:44 39.85728 -104.67955 5384 ft 2 kts
2026-05-08 02:50 39.85731 -104.67952 5384 ft 0 kts 33°
2026-05-08 02:50 39.85731 -104.67949 5385 ft 1 kts 53°
2026-05-08 02:50 39.85732 -104.67930 5382 ft 3 kts 98°
2026-05-08 02:51 39.85723 -104.67892 5386 ft 5 kts 106°
2026-05-08 02:51 39.85710 -104.67837 5386 ft 7 kts 106°
2026-05-08 02:51 39.85694 -104.67763 5386 ft 10 kts 106°
2026-05-08 02:51 39.85677 -104.67667 5386 ft 12 kts 99°
2026-05-08 02:52 39.85666 -104.67552 5387 ft 14 kts 91°
2026-05-08 02:52 39.85666 -104.67419 5387 ft 16 kts 90°
2026-05-08 02:52 39.85665 -104.67270 5387 ft 17 kts 90°
2026-05-08 02:52 39.85663 -104.67107 5387 ft 19 kts 91°
2026-05-08 02:53 39.85662 -104.66928 5387 ft 21 kts 90°
2026-05-08 02:53 39.85660 -104.66734 5387 ft 22 kts 91°
2026-05-08 02:53 39.85664 -104.66563 5384 ft 14 kts 70°
2026-05-08 02:53 39.85680 -104.66432 5387 ft 16 kts 92°
2026-05-08 02:54 39.85678 -104.66309 5395 ft 11 kts 91°
2026-05-08 02:54 39.85715 -104.66242 5389 ft 10 kts 14°
2026-05-08 02:54 39.85795 -104.66236 5391 ft 13 kts
2026-05-08 02:54 39.85897 -104.66235 5393 ft 17 kts
2026-05-08 02:55 39.86026 -104.66234 5390 ft 20 kts
2026-05-08 02:55 39.86365 -104.66228 5382 ft 28 kts
2026-05-08 02:55 39.86555 -104.66227 5385 ft 28 kts
2026-05-08 02:56 39.86767 -104.66225 5378 ft 33 kts
2026-05-08 02:56 39.87005 -104.66221 5372 ft 34 kts
2026-05-08 02:56 39.87207 -104.66218 5365 ft 20 kts
2026-05-08 02:56 39.87359 -104.66216 5364 ft 23 kts
2026-05-08 02:57 39.87383 -104.66216 5364 ft 0 kts
2026-05-08 02:57 39.87410 -104.66215 5364 ft 10 kts
2026-05-08 02:58 39.87475 -104.66215 5364 ft 18 kts 360°
2026-05-08 02:58 39.87711 -104.66216 5361 ft 27 kts
2026-05-08 02:58 39.87757 -104.66017 5356 ft 39 kts 90°
2026-05-08 02:58 39.87754 -104.65443 5355 ft 89 kts 90°
2026-05-08 02:59 39.87747 -104.64414 5337 ft 138 kts 91°
2026-05-08 02:59 39.87734 -104.62964 5405 ft 175 kts 90°
2026-05-08 02:59 39.87737 -104.61918 5819 ft 176 kts 89°
2026-05-08 02:59 39.87720 -104.60222 6241 ft 195 kts 93°
2026-05-08 03:00 39.87337 -104.58479 6602 ft 210 kts 114°
2026-05-08 03:00 39.86729 -104.56663 6969 ft 228 kts 113°
2026-05-08 03:00 39.86078 -104.54695 7202 ft 247 kts 113°
2026-05-08 03:00 39.85363 -104.52534 7496 ft 273 kts 113°
2026-05-08 03:01 39.84577 -104.50164 7950 ft 295 kts 113°
2026-05-08 03:01 39.83752 -104.47669 8692 ft 304 kts 113°
2026-05-08 03:01 39.82910 -104.45113 9513 ft 312 kts 113°
2026-05-08 03:01 39.82050 -104.42502 9807 ft 315 kts 113°
2026-05-08 03:02 39.81175 -104.39840 9896 ft 332 kts 113°
2026-05-08 03:02 39.80240 -104.37035 10229 ft 348 kts 114°
2026-05-08 03:02 39.79245 -104.34140 10979 ft 352 kts 114°
2026-05-08 03:02 39.78224 -104.31214 11739 ft 358 kts 114°
2026-05-08 03:03 39.77184 -104.28254 12486 ft 363 kts 114°
2026-05-08 03:03 39.76127 -104.25246 13220 ft 368 kts 114°
2026-05-08 03:03 39.75057 -104.22189 13943 ft 373 kts 114°
2026-05-08 03:03 39.73979 -104.19106 14663 ft 376 kts 114°
2026-05-08 03:04 39.72893 -104.16000 15365 ft 380 kts 114°
2026-05-08 03:04 39.71790 -104.12862 16045 ft 383 kts 114°
2026-05-08 03:04 39.70672 -104.09698 16708 ft 388 kts 114°
2026-05-08 03:04 39.69538 -104.06491 17374 ft 392 kts 115°
2026-05-08 03:05 39.68407 -104.03298 18024 ft 396 kts 115°
2026-05-08 03:05 39.67247 -104.00033 18619 ft 400 kts 115°
2026-05-08 03:05 39.66075 -103.96739 19204 ft 404 kts 115°
2026-05-08 03:05 39.64870 -103.93428 19800 ft 407 kts 116°
2026-05-08 03:06 39.63579 -103.90134 20384 ft 411 kts 118°
2026-05-08 03:06 39.62227 -103.86857 20981 ft 414 kts 119°
2026-05-08 03:06 39.60839 -103.83567 21556 ft 418 kts 119°
2026-05-08 03:06 39.59458 -103.80239 22116 ft 421 kts 115°
2026-05-08 03:07 39.58356 -103.76702 22659 ft 425 kts 109°
2026-05-08 03:07 39.57332 -103.73096 23219 ft 428 kts 109°
2026-05-08 03:07 39.56307 -103.69447 23728 ft 432 kts 109°
2026-05-08 03:07 39.55275 -103.65776 24187 ft 436 kts 109°
2026-05-08 03:08 39.54233 -103.62077 24648 ft 439 kts 109°
2026-05-08 03:08 39.53181 -103.58344 25089 ft 442 kts 109°
2026-05-08 03:08 39.52119 -103.54588 25523 ft 446 kts 109°
2026-05-08 03:08 39.51047 -103.50810 25949 ft 449 kts 110°
2026-05-08 03:09 39.49964 -103.47004 26376 ft 453 kts 110°
2026-05-08 03:09 39.48867 -103.43162 26792 ft 456 kts 110°
2026-05-08 03:09 39.47765 -103.39301 27197 ft 459 kts 110°
2026-05-08 03:09 39.46654 -103.35414 27563 ft 463 kts 110°
2026-05-08 03:10 39.45545 -103.31535 27961 ft 466 kts 110°
2026-05-08 03:10 39.44412 -103.27582 28362 ft 470 kts 110°
2026-05-08 03:10 39.43271 -103.23608 28769 ft 473 kts 110°
2026-05-08 03:10 39.42119 -103.19599 29174 ft 476 kts 110°
2026-05-08 03:11 39.40959 -103.15578 29569 ft 479 kts 110°
2026-05-08 03:11 39.39787 -103.11527 29981 ft 482 kts 111°
2026-05-08 03:11 39.38602 -103.07446 30314 ft 485 kts 111°
2026-05-08 03:11 39.37409 -103.03346 30647 ft 488 kts 111°
2026-05-08 03:12 39.36213 -102.99227 30976 ft 490 kts 110°
2026-05-08 03:12 39.35005 -102.95153 31287 ft 493 kts 114°
2026-05-08 03:12 39.33514 -102.91160 31597 ft 495 kts 117°
2026-05-08 03:12 39.31957 -102.87163 31910 ft 497 kts 117°
2026-05-08 03:13 39.30389 -102.83170 32195 ft 499 kts 117°
2026-05-08 03:13 39.28819 -102.79180 32656 ft 497 kts 117°
2026-05-08 03:13 39.27254 -102.75205 33125 ft 496 kts 117°
2026-05-08 03:13 39.25694 -102.71247 33595 ft 495 kts 117°
2026-05-08 03:14 39.24136 -102.67294 34034 ft 494 kts 117°
2026-05-08 03:14 39.22600 -102.63398 34420 ft 493 kts 118°
2026-05-08 03:14 39.21046 -102.59457 34798 ft 493 kts 118°
2026-05-08 03:14 39.19495 -102.55524 35173 ft 492 kts 118°
2026-05-08 03:15 39.17943 -102.51594 35541 ft 491 kts 118°
2026-05-08 03:15 39.16386 -102.47663 35890 ft 491 kts 118°
2026-05-08 03:15 39.14832 -102.43756 36239 ft 490 kts 119°
2026-05-08 03:15 39.13274 -102.39844 36573 ft 490 kts 119°
2026-05-08 03:16 39.11718 -102.35951 36881 ft 490 kts 119°
2026-05-08 03:16 39.10153 -102.32053 37184 ft 490 kts 120°
2026-05-08 03:16 39.08588 -102.28166 37489 ft 489 kts 120°
2026-05-08 03:16 39.07017 -102.24271 37797 ft 489 kts 120°
2026-05-08 03:17 39.05449 -102.20387 38097 ft 489 kts 120°
2026-05-08 03:17 39.03885 -102.16509 38342 ft 488 kts 120°
2026-05-08 03:17 39.02323 -102.12630 38614 ft 488 kts 120°
2026-05-08 03:17 39.00760 -102.08750 38819 ft 488 kts 120°
2026-05-08 03:18 38.99199 -102.04882 38895 ft 488 kts 120°
2026-05-08 03:18 38.96090 -101.97193 38876 ft 488 kts 120°
2026-05-08 03:19 38.92952 -101.89462 38905 ft 487 kts 121°
2026-05-08 03:19 38.89807 -101.81761 38904 ft 487 kts 121°
2026-05-08 03:20 38.86651 -101.74058 38903 ft 487 kts 121°
2026-05-08 03:20 38.84007 -101.66026 38917 ft 491 kts 109°
2026-05-08 03:21 38.81963 -101.57661 38908 ft 492 kts 110°
2026-05-08 03:21 38.79900 -101.49350 38908 ft 493 kts 110°
2026-05-08 03:22 38.77800 -101.40982 38877 ft 492 kts 110°
2026-05-08 03:22 38.75698 -101.32629 38904 ft 492 kts 110°
2026-05-08 03:23 38.73604 -101.24287 38928 ft 492 kts 110°
2026-05-08 03:23 38.71495 -101.15920 38908 ft 493 kts 110°
2026-05-08 03:24 38.69394 -101.07611 38904 ft 494 kts 110°
2026-05-08 03:24 38.67273 -100.99258 38908 ft 494 kts 111°
2026-05-08 03:25 38.65138 -100.90891 38946 ft 494 kts 111°
2026-05-08 03:25 38.63005 -100.82541 38950 ft 494 kts 111°
2026-05-08 03:26 38.60862 -100.74190 38936 ft 493 kts 111°
2026-05-08 03:26 38.58715 -100.65861 38940 ft 493 kts 111°
2026-05-08 03:27 38.56570 -100.57543 38934 ft 492 kts 111°
2026-05-08 03:27 38.54434 -100.49289 38919 ft 493 kts 111°
2026-05-08 03:28 38.52269 -100.40971 38899 ft 494 kts 111°
2026-05-08 03:28 38.50101 -100.32655 38896 ft 494 kts 111°
2026-05-08 03:29 38.47926 -100.24328 38893 ft 494 kts 111°
2026-05-08 03:29 38.45741 -100.16002 38895 ft 495 kts 111°
2026-05-08 03:30 38.42447 -100.03484 38866 ft 497 kts 111°
2026-05-08 03:31 38.38015 -99.86756 38883 ft 498 kts 111°
2026-05-08 03:32 38.34662 -99.74190 38888 ft 500 kts 112°
2026-05-08 03:32 38.32432 -99.65860 38889 ft 500 kts 112°
2026-05-08 03:33 38.30170 -99.57458 38890 ft 501 kts 112°
2026-05-08 03:33 38.27908 -99.49064 38901 ft 501 kts 112°
2026-05-08 03:34 38.25640 -99.40665 38886 ft 501 kts 113°
2026-05-08 03:34 38.23388 -99.32347 38902 ft 500 kts 113°
2026-05-08 03:35 38.21111 -99.23978 38914 ft 500 kts 113°
2026-05-08 03:35 38.18829 -99.15617 38917 ft 500 kts 113°
2026-05-08 03:36 38.16742 -99.08009 38934 ft 500 kts 113°
2026-05-08 03:36 38.14461 -98.99695 38917 ft 501 kts 113°
2026-05-08 03:37 38.12154 -98.91322 38914 ft 502 kts 113°
2026-05-08 03:37 38.09837 -98.82961 38908 ft 502 kts 113°
2026-05-08 03:38 38.07529 -98.74624 38893 ft 503 kts 113°
2026-05-08 03:38 38.05201 -98.66254 38897 ft 503 kts 114°
2026-05-08 03:39 38.02859 -98.57882 38890 ft 504 kts 114°
2026-05-08 03:39 38.00513 -98.49495 38893 ft 505 kts 114°
2026-05-08 03:40 37.98165 -98.41111 38893 ft 505 kts 114°
2026-05-08 03:40 37.95800 -98.32721 38904 ft 505 kts 115°
2026-05-08 03:41 37.93426 -98.24333 38888 ft 506 kts 115°
2026-05-08 03:41 37.91039 -98.15928 38885 ft 507 kts 115°
2026-05-08 03:42 37.88663 -98.07577 38870 ft 508 kts 115°
2026-05-08 03:42 37.86267 -97.99167 38882 ft 508 kts 115°
2026-05-08 03:43 37.83860 -97.90754 38888 ft 508 kts 115°
2026-05-08 03:43 37.81445 -97.82338 38895 ft 509 kts 116°
2026-05-08 03:44 37.79020 -97.73914 38899 ft 509 kts 116°
2026-05-08 03:44 37.76602 -97.65554 38901 ft 510 kts 116°
2026-05-08 03:45 37.74043 -97.57225 38925 ft 504 kts 123°
2026-05-08 03:45 37.70817 -97.49377 38914 ft 503 kts 125°
2026-05-08 03:46 37.67573 -97.41511 38927 ft 505 kts 125°
2026-05-08 03:46 37.64332 -97.33650 38922 ft 505 kts 125°
2026-05-08 03:47 37.61089 -97.25778 38927 ft 506 kts 125°
2026-05-08 03:47 37.57833 -97.17914 38933 ft 506 kts 125°
2026-05-08 03:48 37.54559 -97.10058 38934 ft 506 kts 125°
2026-05-08 03:48 37.51287 -97.02203 38936 ft 506 kts 125°
2026-05-08 03:49 37.48006 -96.94355 38918 ft 506 kts 126°
2026-05-08 03:49 37.44738 -96.86562 38932 ft 507 kts 126°
2026-05-08 03:50 37.41449 -96.78714 38942 ft 507 kts 126°
2026-05-08 03:50 37.38148 -96.70853 38949 ft 508 kts 126°
2026-05-08 03:51 37.34837 -96.63001 38949 ft 508 kts 126°
2026-05-08 03:51 37.31512 -96.55162 38960 ft 508 kts 126°
2026-05-08 03:52 37.28185 -96.47324 38944 ft 508 kts 127°
2026-05-08 03:52 37.24876 -96.39549 38960 ft 508 kts 127°
2026-05-08 03:53 37.21533 -96.31705 38962 ft 508 kts 127°
2026-05-08 03:53 37.18192 -96.23878 38969 ft 509 kts 127°
2026-05-08 03:54 37.14845 -96.16057 38980 ft 509 kts 127°
2026-05-08 03:54 37.11497 -96.08248 39008 ft 508 kts 128°
2026-05-08 03:55 37.08134 -96.00447 38935 ft 509 kts 128°
2026-05-08 03:55 37.04750 -95.92619 38975 ft 513 kts 128°
2026-05-08 03:56 37.01357 -95.84753 38979 ft 514 kts 128°
2026-05-08 03:56 36.97957 -95.76888 38985 ft 514 kts 128°
2026-05-08 03:57 36.94567 -95.69068 38987 ft 514 kts 128°
2026-05-08 03:57 36.91140 -95.61217 38979 ft 515 kts 128°
2026-05-08 03:58 36.87698 -95.53340 38982 ft 517 kts 128°
2026-05-08 03:58 36.84248 -95.45456 38986 ft 519 kts 129°
2026-05-08 03:59 36.80777 -95.37550 39003 ft 519 kts 129°
2026-05-08 03:59 36.77325 -95.29692 39020 ft 520 kts 129°
2026-05-08 04:00 36.73844 -95.21788 39015 ft 520 kts 129°
2026-05-08 04:00 36.70349 -95.13875 39023 ft 521 kts 129°
2026-05-08 04:01 36.66845 -95.05972 39033 ft 521 kts 129°
2026-05-08 04:01 36.63334 -94.98068 39002 ft 521 kts 130°
2026-05-08 04:02 36.59824 -94.90188 39029 ft 521 kts 130°
2026-05-08 04:02 36.56303 -94.82288 39035 ft 522 kts 130°
2026-05-08 04:03 36.52776 -94.74399 39039 ft 522 kts 130°
2026-05-08 04:03 36.47465 -94.62569 39059 ft 522 kts 130°
2026-05-08 04:04 36.43947 -94.54738 39057 ft 523 kts 130°
2026-05-08 04:04 36.40389 -94.46854 39034 ft 523 kts 130°
2026-05-08 04:05 36.36818 -94.38968 39057 ft 524 kts 130°
2026-05-08 04:05 36.33250 -94.31087 39068 ft 524 kts 130°
2026-05-08 04:06 36.29672 -94.23192 39087 ft 524 kts 130°
2026-05-08 04:06 36.26115 -94.15295 39049 ft 529 kts 127°
2026-05-08 04:07 36.24667 -94.11048 39047 ft 542 kts 117°
2026-05-08 04:07 36.23676 -94.06493 39046 ft 551 kts 108°
2026-05-08 04:07 36.22139 -93.97238 39046 ft 552 kts 109°
2026-05-08 04:08 36.20550 -93.87933 39055 ft 552 kts 109°
2026-05-08 04:08 36.18948 -93.78630 39038 ft 553 kts 109°
2026-05-08 04:09 36.17346 -93.69320 39021 ft 553 kts 109°
2026-05-08 04:09 36.15738 -93.60005 39033 ft 554 kts 109°
2026-05-08 04:10 36.14117 -93.50683 39050 ft 554 kts 109°
2026-05-08 04:10 36.12489 -93.41366 39064 ft 554 kts 109°
2026-05-08 04:11 36.10859 -93.32061 39068 ft 553 kts 109°
2026-05-08 04:11 36.09226 -93.22810 39073 ft 553 kts 109°
2026-05-08 04:12 36.07575 -93.13511 39076 ft 553 kts 109°
2026-05-08 04:12 36.05922 -93.04212 39080 ft 554 kts 109°
2026-05-08 04:13 36.04260 -92.94918 39066 ft 554 kts 109°
2026-05-08 04:13 36.02584 -92.85601 39062 ft 555 kts 109°
2026-05-08 04:14 36.01194 -92.77850 39068 ft 555 kts 109°
2026-05-08 04:14 35.99234 -92.67019 39071 ft 555 kts 110°
2026-05-08 04:15 35.97534 -92.57712 39064 ft 556 kts 110°
2026-05-08 04:15 35.96109 -92.49967 39060 ft 556 kts 110°
2026-05-08 04:16 35.94391 -92.40639 39064 ft 557 kts 110°
2026-05-08 04:16 35.92672 -92.31318 38904 ft 559 kts 110°
2026-05-08 04:17 35.91797 -92.26609 38047 ft 568 kts 110°
2026-05-08 04:17 35.90906 -92.21834 37335 ft 572 kts 110°
2026-05-08 04:17 35.90015 -92.17050 36796 ft 571 kts 110°
2026-05-08 04:17 35.89127 -92.12283 36072 ft 573 kts 110°
2026-05-08 04:18 35.88224 -92.07472 35280 ft 577 kts 110°
2026-05-08 04:18 35.87331 -92.02707 34682 ft 577 kts 110°
2026-05-08 04:18 35.86435 -91.97897 34168 ft 574 kts 110°
2026-05-08 04:18 35.85541 -91.93109 33630 ft 570 kts 109°
2026-05-08 04:19 35.84651 -91.88365 33104 ft 566 kts 109°
2026-05-08 04:19 35.83765 -91.83658 32622 ft 561 kts 109°
2026-05-08 04:19 35.82879 -91.78994 32138 ft 555 kts 108°
2026-05-08 04:19 35.81941 -91.74408 31633 ft 545 kts 114°
2026-05-08 04:20 35.80568 -91.70130 31060 ft 530 kts 122°
2026-05-08 04:20 35.79041 -91.66019 30475 ft 524 kts 121°
2026-05-08 04:20 35.77540 -91.61954 29858 ft 519 kts 120°
2026-05-08 04:20 35.76062 -91.57933 29228 ft 512 kts 120°
2026-05-08 04:21 35.74601 -91.53966 28615 ft 505 kts 120°
2026-05-08 04:21 35.73156 -91.50049 27984 ft 499 kts 120°
2026-05-08 04:21 35.71731 -91.46189 27406 ft 492 kts 119°
2026-05-08 04:21 35.70322 -91.42390 26847 ft 485 kts 119°
2026-05-08 04:22 35.68930 -91.38641 26299 ft 478 kts 119°
2026-05-08 04:22 35.67573 -91.34995 25783 ft 472 kts 118°
2026-05-08 04:22 35.66214 -91.31355 25286 ft 466 kts 118°
2026-05-08 04:22 35.64872 -91.27762 24806 ft 459 kts 118°
2026-05-08 04:23 35.63555 -91.24239 24610 ft 445 kts 118°
2026-05-08 04:23 35.62284 -91.20827 24313 ft 435 kts 118°
2026-05-08 04:23 35.61033 -91.17476 23899 ft 428 kts 118°
2026-05-08 04:23 35.59796 -91.14172 23408 ft 422 kts 118°
2026-05-08 04:24 35.58574 -91.10911 22857 ft 417 kts 118°
2026-05-08 04:24 35.57366 -91.07694 22210 ft 411 kts 118°
2026-05-08 04:24 35.56174 -91.04520 21516 ft 406 kts 118°
2026-05-08 04:24 35.55002 -91.01397 20859 ft 400 kts 118°
2026-05-08 04:25 35.53841 -90.98313 20220 ft 395 kts 117°
2026-05-08 04:25 35.52716 -90.95323 19744 ft 386 kts 117°
2026-05-08 04:25 35.51607 -90.92379 19369 ft 374 kts 118°
2026-05-08 04:25 35.50526 -90.89520 18984 ft 364 kts 118°
2026-05-08 04:26 35.49477 -90.86739 18604 ft 355 kts 118°
2026-05-08 04:26 35.48449 -90.84006 18236 ft 351 kts 118°
2026-05-08 04:26 35.47425 -90.81293 17861 ft 349 kts 118°
2026-05-08 04:26 35.46410 -90.78605 17501 ft 347 kts 118°
2026-05-08 04:27 35.45398 -90.75927 17129 ft 345 kts 118°
2026-05-08 04:27 35.44391 -90.73268 16781 ft 343 kts 118°
2026-05-08 04:27 35.43387 -90.70623 16400 ft 341 kts 118°
2026-05-08 04:27 35.42401 -90.68024 15989 ft 338 kts 118°
2026-05-08 04:28 35.41379 -90.65348 15672 ft 354 kts 118°
2026-05-08 04:28 35.40329 -90.62603 15343 ft 357 kts 118°
2026-05-08 04:28 35.39275 -90.59849 14991 ft 356 kts 117°
2026-05-08 04:28 35.38225 -90.57111 14663 ft 354 kts 117°
2026-05-08 04:29 35.37179 -90.54391 14334 ft 352 kts 117°
2026-05-08 04:29 35.36141 -90.51688 14005 ft 349 kts 117°
2026-05-08 04:29 35.35101 -90.49007 13657 ft 347 kts 119°
2026-05-08 04:29 35.33840 -90.46521 13331 ft 342 kts 130°
2026-05-08 04:30 35.32345 -90.44272 13011 ft 339 kts 133°
2026-05-08 04:30 35.30848 -90.42047 12693 ft 338 kts 133°
2026-05-08 04:30 35.29360 -90.39832 12416 ft 336 kts 133°
2026-05-08 04:30 35.27879 -90.37613 12312 ft 336 kts 132°
2026-05-08 04:31 35.26407 -90.35399 12161 ft 335 kts 131°
2026-05-08 04:31 35.24935 -90.33190 12011 ft 335 kts 131°
2026-05-08 04:31 35.23463 -90.30985 11694 ft 334 kts 132°
2026-05-08 04:31 35.22002 -90.28798 11341 ft 330 kts 132°
2026-05-08 04:32 35.20551 -90.26632 10999 ft 328 kts 132°
2026-05-08 04:32 35.19113 -90.24483 10643 ft 326 kts 131°
2026-05-08 04:32 35.17695 -90.22372 10332 ft 324 kts 131°
2026-05-08 04:32 35.16270 -90.20251 9995 ft 322 kts 131°
2026-05-08 04:33 35.14857 -90.18142 9641 ft 320 kts 131°
2026-05-08 04:33 35.13454 -90.16050 9311 ft 316 kts 131°
2026-05-08 04:33 35.12067 -90.13980 8973 ft 313 kts 130°
2026-05-08 04:33 35.10532 -90.12140 8640 ft 307 kts 149°
2026-05-08 04:34 35.08628 -90.11111 8321 ft 293 kts 172°
2026-05-08 04:34 35.06660 -90.10938 8019 ft 278 kts 186°
2026-05-08 04:34 35.04752 -90.10980 7726 ft 270 kts 185°
2026-05-08 04:34 35.02904 -90.11017 7446 ft 262 kts 185°
2026-05-08 04:35 35.01104 -90.11019 7169 ft 255 kts 183°
2026-05-08 04:35 34.99355 -90.10966 6916 ft 248 kts 182°
2026-05-08 04:35 34.97655 -90.10897 6659 ft 241 kts 181°
2026-05-08 04:35 34.95985 -90.10828 6411 ft 237 kts 180°
2026-05-08 04:36 34.94352 -90.10760 6151 ft 232 kts 180°
2026-05-08 04:36 34.92781 -90.10698 5914 ft 226 kts 180°
2026-05-08 04:36 34.91228 -90.10643 5681 ft 220 kts 180°
2026-05-08 04:36 34.89718 -90.10591 5455 ft 214 kts 180°
2026-05-08 04:37 34.88247 -90.10543 5236 ft 209 kts 180°
2026-05-08 04:37 34.86805 -90.10498 5017 ft 204 kts 180°
2026-05-08 04:37 34.85398 -90.10462 4795 ft 200 kts 180°
2026-05-08 04:37 34.84017 -90.10434 4557 ft 197 kts 180°
2026-05-08 04:38 34.82659 -90.10411 4297 ft 194 kts 179°
2026-05-08 04:38 34.81327 -90.10188 4018 ft 193 kts 166°
2026-05-08 04:38 34.80047 -90.09721 3743 ft 191 kts 155°
2026-05-08 04:38 34.79120 -90.08620 3454 ft 188 kts 113°
2026-05-08 04:39 34.78892 -90.07078 3162 ft 186 kts 91°
2026-05-08 04:39 34.78900 -90.05505 2881 ft 186 kts 88°
2026-05-08 04:39 34.78950 -90.03944 2612 ft 184 kts 84°
2026-05-08 04:39 34.79236 -90.02442 2319 ft 183 kts 60°
2026-05-08 04:40 34.80083 -90.01314 2052 ft 181 kts 34°
2026-05-08 04:40 34.81165 -90.00525 1983 ft 182 kts 29°
2026-05-08 04:40 34.82280 -89.99795 2009 ft 182 kts 28°
2026-05-08 04:40 34.83399 -89.99071 2006 ft 181 kts 28°
2026-05-08 04:41 34.84555 -89.98462 1998 ft 181 kts 17°
2026-05-08 04:41 34.85754 -89.98334 2033 ft 164 kts 359°
2026-05-08 04:41 34.86828 -89.98358 1999 ft 147 kts 360°
2026-05-08 04:41 34.87810 -89.98378 2006 ft 135 kts 359°
2026-05-08 04:42 34.88725 -89.98397 2001 ft 129 kts 359°
2026-05-08 04:42 34.89613 -89.98415 2004 ft 127 kts 360°
2026-05-08 04:42 34.90494 -89.98434 2007 ft 127 kts 359°
2026-05-08 04:42 34.91365 -89.98452 2008 ft 126 kts 359°
2026-05-08 04:43 34.92244 -89.98471 2011 ft 126 kts 360°
2026-05-08 04:43 34.93123 -89.98490 2008 ft 126 kts 359°
2026-05-08 04:43 34.94002 -89.98509 1928 ft 126 kts
2026-05-08 04:43 34.94880 -89.98527 1798 ft 126 kts
2026-05-08 04:44 34.95757 -89.98546 1644 ft 126 kts
2026-05-08 04:44 34.96633 -89.98565 1482 ft 126 kts 360°
2026-05-08 04:44 34.97508 -89.98584 1321 ft 125 kts 360°
2026-05-08 04:44 34.98382 -89.98603 1156 ft 126 kts 359°
2026-05-08 04:45 34.99263 -89.98622 991 ft 127 kts 359°
2026-05-08 04:45 35.00155 -89.98641 819 ft 129 kts 359°
2026-05-08 04:45 35.01053 -89.98660 647 ft 129 kts 358°
2026-05-08 04:45 35.01947 -89.98680 488 ft 129 kts 358°
2026-05-08 04:46 35.02796 -89.98703 316 ft 112 kts 358°
2026-05-08 04:46 35.03425 -89.98712 316 ft 66 kts
2026-05-08 04:46 35.03735 -89.98711 311 ft 37 kts 358°
2026-05-08 04:46 35.04090 -89.98725 300 ft 48 kts 359°
2026-05-08 04:47 35.04188 -89.98630 298 ft 10 kts 95°
2026-05-08 04:47 35.04188 -89.98560 298 ft 0 kts 89°
2026-05-08 04:47 35.04188 -89.98559 298 ft 1 kts 89°
2026-05-08 04:47 35.04188 -89.98542 298 ft 3 kts 85°
2026-05-08 04:48 35.04200 -89.98499 300 ft 7 kts 69°
2026-05-08 04:48 35.04216 -89.98431 300 ft 9 kts 77°
2026-05-08 04:48 35.04231 -89.98349 303 ft 10 kts 76°
2026-05-08 04:48 35.04270 -89.98289 304 ft 6 kts 40°
2026-05-08 04:49 35.04283 -89.98245 306 ft 5 kts 102°
2026-05-08 04:49 35.04281 -89.98214 308 ft 2 kts 93°